COSMOS 886 DEB, 14503

Orbit data source: Space-Track

COSMOS 886 DEB, 14503 is space debris in LEO originally from a launch on Mon, 27 Dec 1976 UTC launched from the Tyuratam Missile And Space Complex (TTMTR). Debris objects in space refer to the collection of defunct objects orbiting the Earth. Examples of debris include non-operational satellites, rocket bodies, and fragments generated from explosions, collisions, or faulty payload assembly.

Loading next visibility...
Identifier
14503, 1976-126BQ
Orbit
LEO
Country
Flag of CISCIS
Related business
Manufacturer
Unknown
Mission
Spacecraft
Bus & Motor
Unknown
Mass
Unknown
Launch date (UTC)
1976-12-27 (49 years ago)
Launch vehicle
Unknown
Launch site
Tyuratam Missile And Space Complex (TTMTR)
Object type
Payload
Rocket body
Debris
Shape & HBR
Unknown shape, 0.1 m
Radar Cross Section
Medium (>0.1 m² and <1 m²)

Expand to show TLE details & history
Last TLE update: 3 days ago

TLE from 3 days ago
0 COSMOS 886 DEB
1 14503U 76126BQ  26172.84817506  .00000151  00000-0  29880-3 0  9999
2 14503  65.8595  14.5405 1005999 241.4346 108.1847 12.32238701573989
Epoch: 2026-06-21T20:21Z
TLE epoch observation values (Epoch: 2026-06-21T20:21:22.325Z)
Latitude
0.00005°
Longitude
159.15494°
Altitude
1,858.792 km
Speed
6.817 km/s
True Right ascension
00h 58m 09s
True Declination
0° 00' 00"
Sunlit
Object was in daylight at epoch
Visualization orbit readout
Latitude
Unknown
Longitude
Unknown
Altitude
Unknown
Speed
Unknown
Apparent Right ascension
Unknown
Apparent Declination
Unknown
Sunlit
N/A
Visualization observer readout
Local Sidereal Time
13:15:51
Azimuth
Unknown
Elevation
Unknown
Doppler factor
Unknown
Orbital elements
Apogee altitude
2,334.665 km
Perigee altitude
741.885 km
Semi-major axis
7,916.412 km
Eccentricity
0.1006
Inclination
65.8595°
RAAN
14.5405°
Arg. of periapsis
241.4346°
True anomaly
118.66427°
Mean anomaly
108.1847°
Eccentric anomaly
113.47172°
Mean motion
3.08142 °/min
Orbital period
116.83 mins
BSTAR
0.0002988
Loading maneuver chart data...
Computing Atmospheric mass density...
Loading historical data...
Loading historical data...
Loading historical data...
Loading historical data...
Loading historical data...
Loading historical data...
Loading historical data...

Documentation

Showing up to 5 results
|